DW2891 Weather Reports


time (UTC)temp
C
wind
direction
speed
KPH
gust
KPH
rain 1hr
cm
rain 24hr
cm
rain mn
cm
humidity
%
barometer
mb
20260503200106 23 331 0.0 8.0 0.00 0.00 0.00 42 1013.0
20260503195605 23 113 0.0 0.0 0.00 0.00 0.00 42 1013.1
20260503195105 23 227 0.0 1.6 0.00 0.00 0.00 44 1013.2
20260503194106 23 19 0.0 1.6 0.00 0.00 0.00 47 1013.3
20260503193105 23 69 0.0 9.7 0.00 0.00 0.00 43 1013.4
20260503192605 23 351 0.0 0.0 0.00 0.00 0.00 42 1013.4
20260503192105 23 61 1.6 12.9 0.00 0.00 0.00 44 1013.5
20260503191104 24 15 3.2 12.9 0.00 0.00 0.00 40 1013.5
20260503190606 24 348 0.0 0.0 0.00 0.00 0.00 39 1013.6
20260503190105 23 350 9.7 22.5 0.00 0.00 0.00 39 1013.7
20260503185605 23 352 4.8 16.1 0.00 0.00 0.00 39 1013.7
20260503185105 23 312 3.2 16.1 0.00 0.00 0.00 38 1013.7
20260503184605 23 312 1.6 9.7 0.00 0.00 0.00 42 1013.7
20260503184104 23 332 0.0 8.0 0.00 0.00 0.00 41 1013.8
20260503183604 23 355 0.0 1.6 0.00 0.00 0.00 48 1013.8
20260503183104 23 89 0.0 8.0 0.00 0.00 0.00 46 1013.8
20260503182606 22 355 0.0 8.0 0.00 0.00 0.00 51 1013.8
20260503182104 23 55 0.0 9.7 0.00 0.00 0.00 48 1013.8
20260503181604 22 69 0.0 4.8 0.00 0.00 0.00 50 1013.8
20260503180605 22 60 1.6 9.7 0.00 0.00 0.00 46 1013.8
20260503180105 22 42 1.6 8.0 0.00 0.00 0.00 45 1013.8
20260503175605 22 308 3.2 22.5 0.00 0.00 0.00 45 1013.8
20260503175105 22 304 8.0 14.5 0.00 0.00 0.00 43 1013.9
20260503174605 23 322 3.2 12.9 0.00 0.00 0.00 40 1013.9
20260503174106 23 320 6.4 14.5 0.00 0.00 0.00 43 1013.9
20260503173605 22 32 4.8 19.3 0.00 0.00 0.00 43 1014.0
20260503173105 22 341 0.0 19.3 0.00 0.00 0.00 44 1014.0
20260503172605 22 315 14.5 22.5 0.00 0.00 0.00 42 1014.0
20260503172104 22 200 0.0 3.2 0.00 0.00 0.00 40 1014.0
20260503171604 22 267 0.0 1.6 0.00 0.00 0.00 44 1014.1
20260503171105 22 11 0.0 8.0 0.00 0.00 0.00 46 1014.1
20260503170105 21 324 0.0 14.5 0.00 0.00 0.00 46 1014.1
20260503160105 19 306 0.0 0.0 0.00 0.00 0.00 50 1014.1
20260503150605 17 261 0.0 1.6 0.00 0.00 0.00 56 1014.5
20260503150105 17 292 0.0 0.0 0.00 0.00 0.00 55 1014.5
20260503140105 17 343 0.0 1.6 0.00 0.00 0.00 54 1014.4
20260503130605 17 306 4.8 25.7 0.00 0.00 0.00 50 1014.5
20260503130104 17 351 9.7 22.5 0.00 0.00 0.00 50 1014.6
20260503120104 18 313 6.4 22.5 0.00 0.00 0.00 48 1014.6
20260503110605 18 333 1.6 8.0 0.00 0.00 0.00 48 1014.6
20260503110105 18 324 1.6 27.4 0.00 0.00 0.00 49 1014.5
20260503100105 19 353 3.2 14.5 0.00 0.00 0.00 45 1014.6
20260503090104 20 334 9.7 27.4 0.00 0.00 0.00 42 1014.7
20260503081105 19 290 3.2 16.1 0.00 0.00 0.00 44 1014.9
20260503080606 19 284 14.5 32.2 0.00 0.00 0.00 44 1014.9
20260503080104 18 302 3.2 14.5 0.00 0.00 0.00 50 1014.9
20260503072606 20 27 4.8 16.1 0.00 0.00 0.00 45 1014.9
20260503072104 19 309 1.6 12.9 0.00 0.00 0.00 50 1014.8
20260503071605 19 6 3.2 25.7 0.00 0.00 0.00 47 1014.7
20260503071105 18 307 1.6 14.5 0.00 0.00 0.00 50 1014.7
20260503070104 18 315 0.0 9.7 0.00 0.00 0.00 51 1014.7
20260503060104 19 321 3.2 14.5 0.00 0.00 0.00 46 1014.7
20260503055104 18 317 0.0 0.0 0.00 0.00 0.00 52 1014.8
20260503054604 18 317 0.0 3.2 0.00 0.00 0.00 51 1014.8
20260503054104 18 317 3.2 12.9 0.00 0.00 0.00 50 1014.7
20260503053605 19 15 0.0 4.8 0.00 0.00 0.00 47 1014.7
20260503052604 18 28 0.0 0.0 0.00 0.00 0.00 49 1014.7
20260503052105 19 28 1.6 9.7 0.00 0.00 0.00 46 1014.7
20260503051604 19 78 0.0 8.0 0.00 0.00 0.00 47 1014.8
20260503050604 18 304 0.0 8.0 0.00 0.00 0.00 48 1014.8
20260503044605 18 29 0.0 0.0 0.00 0.00 0.00 44 1014.7
20260503044105 18 13 0.0 0.0 0.00 0.00 0.00 46 1014.7
20260503043605 19 8 1.6 14.5 0.00 0.00 0.00 44 1014.7
20260503042604 19 167 0.0 16.1 0.00 0.00 0.00 44 1014.5
20260503042104 18 5 0.0 0.0 0.00 0.00 0.00 48 1014.6
20260503041604 19 5 0.0 0.0 0.00 0.00 0.00 47 1014.4
20260503041106 19 5 0.0 1.6 0.00 0.00 0.00 43 1014.4
20260503040605 19 346 0.0 1.6 0.00 0.00 0.00 47 1014.5
20260503040104 18 345 0.0 4.8 0.00 0.00 0.00 49 1014.4
20260503035105 19 346 3.2 12.9 0.00 0.00 0.00 47 1014.3
20260503034104 19 325 0.0 14.5 0.00 0.00 0.00 50 1014.3
20260503033604 19 28 0.0 3.2 0.00 0.00 0.00 50 1014.2
20260503033104 19 28 0.0 0.0 0.00 0.00 0.00 47 1014.1
20260503032604 19 28 0.0 0.0 0.00 0.00 0.00 50 1014.0
20260503031605 19 28 0.0 3.2 0.00 0.00 0.00 47 1014.0
20260503031104 19 34 1.6 9.7 0.00 0.00 0.00 45 1013.9
20260503030604 19 315 1.6 16.1 0.00 0.00 0.00 51 1013.9
20260503030104 19 5 0.0 0.0 0.00 0.00 0.00 53 1013.9
20260503025605 19 5 0.0 0.0 0.00 0.00 0.00 50 1013.8
20260503025105 19 5 0.0 0.0 0.00 0.00 0.00 51 1013.8
20260503024105 19 348 0.0 0.0 0.00 0.00 0.00 49 1013.7
20260503023604 20 348 0.0 0.0 0.00 0.00 0.00 50 1013.7
20260503023104 20 348 0.0 0.0 0.00 0.00 0.00 49 1013.7
20260503022604 20 348 0.0 0.0 0.00 0.00 0.00 49 1013.8
20260503021605 20 348 0.0 0.0 0.00 0.00 0.00 49 1013.8
20260503020604 20 348 0.0 0.0 0.00 0.00 0.00 50 1013.8
20260503020105 20 348 0.0 0.0 0.00 0.00 0.00 48 1013.8
20260503015104 21 348 1.6 9.7 0.00 0.00 0.00 43 1013.9
20260503014604 21 311 1.6 8.0 0.00 0.00 0.00 49 1014.1
20260503014104 21 92 0.0 0.0 0.00 0.00 0.00 49 1014.1
20260503013604 21 92 0.0 0.0 0.00 0.00 0.00 49 1014.2
20260503012604 21 279 0.0 1.6 0.00 0.00 0.00 47 1014.1
20260503012104 21 238 0.0 0.0 0.00 0.00 0.00 45 1014.2
20260503011604 22 258 0.0 0.0 0.00 0.00 0.00 45 1014.2
20260503011104 22 259 0.0 3.2 0.00 0.00 0.00 43 1014.1
20260503010604 22 275 0.0 16.1 0.00 0.00 0.00 40 1014.1
20260503010104 22 321 1.6 9.7 0.00 0.00 0.00 43 1014.1
20260503005604 22 190 0.0 0.0 0.00 0.00 0.00 44 1014.1
20260503005104 22 190 0.0 3.2 0.00 0.00 0.00 45 1014.2
20260503004604 23 260 0.0 0.0 0.00 0.00 0.00 43 1014.2
20260503004105 23 260 3.2 20.9 0.00 0.00 0.00 37 1014.3
20260503003605 23 305 0.0 16.1 0.00 0.00 0.00 40 1014.3
20260503003104 23 297 1.6 9.7 0.00 0.00 0.00 42 1014.3
20260503002604 23 301 0.0 0.0 0.00 0.00 0.00 40 1014.3
20260503001604 23 304 1.6 9.7 0.00 0.00 0.00 35 1014.5
20260503001104 23 277 1.6 9.7 0.00 0.00 0.00 38 1014.5
20260503000104 23 305 4.8 25.7 0.00 0.00 0.00 37 1014.6
20260502235104 23 321 0.0 0.0 0.00 0.00 0.00 38 1014.7
20260502234604 23 335 3.2 14.5 0.00 0.00 0.00 38 1014.8
20260502234104 23 351 3.2 22.5 0.00 0.00 0.00 36 1014.8
20260502233605 23 328 0.0 3.2 0.00 0.00 0.00 41 1014.9
20260502233104 23 239 0.0 16.1 0.00 0.00 0.00 38 1014.9
20260502232604 23 355 0.0 0.0 0.00 0.00 0.00 37 1014.9
20260502232105 24 328 1.6 12.9 0.00 0.00 0.00 37 1015.0
20260502231604 24 322 0.0 0.0 0.00 0.00 0.00 38 1015.1
20260502230604 24 291 1.6 14.5 0.00 0.00 0.00 37 1015.3
20260502230104 24 329 8.0 22.5 0.00 0.00 0.00 36 1015.5
20260502225604 24 269 1.6 4.8 0.00 0.00 0.00 38 1015.6
20260502225104 24 55 3.2 9.7 0.00 0.00 0.00 39 1015.6
20260502224605 23 304 0.0 14.5 0.00 0.00 0.00 38 1015.6
20260502223604 23 271 0.0 9.7 0.00 0.00 0.00 36 1015.7
20260502223104 23 302 3.2 24.1 0.00 0.00 0.00 37 1015.8
20260502222604 23 2 1.6 14.5 0.00 0.00 0.00 42 1015.9
20260502222104 23 270 1.6 8.0 0.00 0.00 0.00 39 1015.8
20260502221605 23 325 1.6 16.1 0.00 0.00 0.00 42 1016.0
20260502221104 23 329 0.0 16.1 0.00 0.00 0.00 42 1016.0
20260502220604 23 251 3.2 14.5 0.00 0.00 0.00 41 1016.0
20260502215604 23 53 0.0 0.0 0.00 0.00 0.00 46 1016.0
20260502215104 23 317 9.7 24.1 0.00 0.00 0.00 45 1016.0
20260502214604 23 333 3.2 19.3 0.00 0.00 0.00 45 1016.0
20260502214104 23 332 0.0 3.2 0.00 0.00 0.00 47 1016.1
20260502213604 23 47 0.0 1.6 0.00 0.00 0.00 46 1016.1
20260502213104 23 319 1.6 9.7 0.00 0.00 0.00 46 1016.1
20260502212604 23 300 1.6 12.9 0.00 0.00 0.00 45 1016.2
20260502212104 23 333 1.6 8.0 0.00 0.00 0.00 43 1016.2
20260502211604 23 313 0.0 9.7 0.00 0.00 0.00 43 1016.2
20260502211104 23 334 3.2 12.9 0.00 0.00 0.00 45 1016.3
20260502210604 23 315 1.6 8.0 0.00 0.00 0.00 43 1016.3
20260502210104 23 331 3.2 12.9 0.00 0.00 0.00 40 1016.4
20260502205604 23 312 4.8 22.5 0.00 0.00 0.00 38 1016.5
20260502204604 23 312 1.6 9.7 0.00 0.00 0.00 40 1016.5
20260502204104 22 338 8.0 14.5 0.00 0.00 0.00 39 1016.5
20260502203104 22 49 0.0 12.9 0.00 0.00 0.00 40 1016.7
20260502202604 22 53 3.2 14.5 0.00 0.00 0.00 42 1016.7
20260502201604 22 335 8.0 19.3 0.00 0.00 0.00 44 1016.8